| time (UTC) | temp F | wind direction | speed MPH | gust MPH | rain 1hr in | rain 24hr in | rain mn in | humidity % | barometer mb |
| 20260508014531 | 64 | 66 | 4.0 | 10.0 | 0.00 | 0.00 | 0.00 | 29 | 1018.1 |
| 20260508013036 | 71 | 22 | 6.0 | 11.0 | 0.00 | 0.00 | 0.00 | 25 | 1018.1 |
| 20260508010108 | 72 | 22 | 6.0 | 12.0 | 0.00 | 0.00 | 0.00 | 24 | 1018.1 |
| 20260508004533 | 73 | 17 | 6.0 | 14.0 | 0.00 | 0.00 | 0.00 | 23 | 1018.1 |
| 20260508003034 | 73 | 353 | 6.0 | 14.0 | 0.00 | 0.00 | 0.00 | 23 | 1018.1 |
| 20260508000031 | 73 | 22 | 9.0 | 16.0 | 0.00 | 0.00 | 0.00 | 24 | 1017.8 |
| 20260507234537 | 73 | 7 | 9.0 | 18.0 | 0.00 | 0.00 | 0.00 | 24 | 1017.9 |
| 20260507233031 | 74 | 28 | 6.0 | 16.0 | 0.00 | 0.00 | 0.00 | 25 | 1018.0 |
| 20260507231531 | 73 | 37 | 5.0 | 12.0 | 0.00 | 0.00 | 0.00 | 27 | 1018.1 |
| 20260507224607 | 73 | 42 | 5.0 | 13.0 | 0.00 | 0.00 | 0.00 | 28 | 1018.5 |
| 20260507223030 | 73 | 48 | 5.0 | 10.0 | 0.00 | 0.00 | 0.00 | 30 | 1018.6 |
| 20260507221535 | 72 | 62 | 6.0 | 11.0 | 0.00 | 0.00 | 0.00 | 31 | 1018.8 |
| 20260507220034 | 71 | 85 | 7.0 | 15.0 | 0.00 | 0.00 | 0.00 | 32 | 1019.0 |
| 20260507214534 | 71 | 88 | 7.0 | 18.0 | 0.00 | 0.00 | 0.00 | 32 | 1019.0 |
| 20260507213042 | 72 | 70 | 6.0 | 18.0 | 0.00 | 0.00 | 0.00 | 32 | 1019.1 |
| 20260507213037 | 72 | 50 | 5.0 | 11.0 | 0.00 | 0.00 | 0.00 | 32 | 1019.2 |
| 20260507210032 | 71 | 34 | 6.0 | 13.0 | 0.00 | 0.00 | 0.00 | 33 | 1019.3 |
| 20260507201537 | 70 | 69 | 5.0 | 10.0 | 0.00 | 0.00 | 0.00 | 36 | 1020.0 |
| 20260507200106 | 70 | 97 | 5.0 | 13.0 | 0.00 | 0.00 | 0.00 | 37 | 1020.0 |
| 20260507194533 | 70 | 84 | 7.0 | 11.0 | 0.00 | 0.00 | 0.00 | 37 | 1020.0 |
| 20260507193107 | 70 | 70 | 5.0 | 11.0 | 0.00 | 0.00 | 0.00 | 37 | 1020.1 |
| 20260507191534 | 69 | 47 | 4.0 | 9.0 | 0.00 | 0.00 | 0.00 | 40 | 1020.3 |
| 20260507190035 | 69 | 55 | 5.0 | 9.0 | 0.00 | 0.00 | 0.00 | 42 | 1020.4 |
| 20260507184541 | 67 | 85 | 5.0 | 12.0 | 0.00 | 0.00 | 0.00 | 45 | 1020.5 |
| 20260507184535 | 68 | 88 | 5.0 | 13.0 | 0.00 | 0.00 | 0.00 | 46 | 1020.6 |
| 20260507181533 | 66 | 73 | 5.0 | 11.0 | 0.00 | 0.00 | 0.00 | 48 | 1020.6 |
| 20260507174532 | 67 | 53 | 6.0 | 16.0 | 0.00 | 0.00 | 0.00 | 43 | 1020.7 |
| 20260507171535 | 66 | 289 | 2.0 | 7.0 | 0.00 | 0.00 | 0.00 | 41 | 1020.8 |
| 20260507170053 | 64 | 292 | 3.0 | 9.0 | 0.00 | 0.00 | 0.00 | 51 | 1020.8 |
| 20260507164606 | 62 | 258 | 4.0 | 11.0 | 0.00 | 0.00 | 0.00 | 57 | 1020.8 |
| 20260507163036 | 60 | 273 | 3.0 | 6.0 | 0.00 | 0.00 | 0.00 | 64 | 1021.0 |
| 20260507161534 | 59 | 292 | 3.0 | 7.0 | 0.00 | 0.00 | 0.00 | 67 | 1021.1 |
| 20260507154645 | 57 | 11 | 1.0 | 5.0 | 0.00 | 0.00 | 0.00 | 80 | 1021.4 |
| 20260507153033 | 55 | 158 | 0.0 | 2.0 | 0.00 | 0.00 | 0.00 | 83 | 1021.5 |
| 20260507151535 | 53 | 158 | 1.0 | 5.0 | 0.00 | 0.00 | 0.00 | 86 | 1021.5 |
| 20260507150051 | 52 | 125 | 1.0 | 5.0 | 0.00 | 0.00 | 0.00 | 91 | 1021.6 |
| 20260507144537 | 49 | 137 | 0.0 | 3.0 | 0.00 | 0.00 | 0.00 | 93 | 1021.5 |
| 20260507143031 | 47 | 119 | 1.0 | 5.0 | 0.00 | 0.00 | 0.00 | 94 | 1021.4 |
| 20260507141531 | 45 | 179 | 1.0 | 3.0 | 0.00 | 0.00 | 0.00 | 94 | 1021.3 |
| 20260507140036 | 44 | 169 | 2.0 | 4.0 | 0.00 | 0.00 | 0.00 | 94 | 1021.1 |
| 20260507133034 | 44 | 146 | 1.0 | 3.0 | 0.00 | 0.00 | 0.00 | 92 | 1021.0 |
| 20260507131536 | 45 | 128 | 3.0 | 5.0 | 0.00 | 0.00 | 0.00 | 92 | 1021.0 |
| 20260507130036 | 45 | 119 | 3.0 | 6.0 | 0.00 | 0.00 | 0.00 | 92 | 1020.9 |
| 20260507124538 | 45 | 97 | 4.0 | 7.0 | 0.00 | 0.00 | 0.00 | 92 | 1020.9 |
| 20260507123034 | 45 | 101 | 2.0 | 5.0 | 0.00 | 0.00 | 0.00 | 91 | 1020.7 |
| 20260507121530 | 46 | 98 | 3.0 | 6.0 | 0.00 | 0.00 | 0.00 | 91 | 1020.7 |
| 20260507114539 | 47 | 88 | 4.0 | 9.0 | 0.00 | 0.00 | 0.00 | 87 | 1020.5 |
| 20260507113035 | 47 | 107 | 3.0 | 9.0 | 0.00 | 0.00 | 0.00 | 86 | 1020.4 |
| 20260507111535 | 47 | 92 | 4.0 | 6.0 | 0.00 | 0.00 | 0.00 | 85 | 1020.2 |
| 20260507104536 | 49 | 104 | 4.0 | 7.0 | 0.00 | 0.00 | 0.00 | 82 | 1020.2 |
| 20260507103037 | 49 | 108 | 3.0 | 8.0 | 0.00 | 0.00 | 0.00 | 79 | 1020.2 |
| 20260507101536 | 49 | 117 | 3.0 | 5.0 | 0.00 | 0.00 | 0.00 | 77 | 1020.2 |
| 20260507100042 | 50 | 161 | 2.0 | 4.0 | 0.00 | 0.00 | 0.00 | 76 | 1020.2 |
| 20260507094535 | 51 | 112 | 1.0 | 5.0 | 0.00 | 0.00 | 0.00 | 75 | 1020.2 |
| 20260507093038 | 51 | 141 | 3.0 | 5.0 | 0.00 | 0.00 | 0.00 | 75 | 1020.2 |
| 20260507091535 | 50 | 137 | 3.0 | 5.0 | 0.00 | 0.00 | 0.00 | 75 | 1020.4 |
| 20260507084535 | 51 | 154 | 0.0 | 3.0 | 0.00 | 0.00 | 0.00 | 68 | 1020.5 |
| 20260507083038 | 51 | 110 | 2.0 | 6.0 | 0.00 | 0.00 | 0.00 | 66 | 1020.5 |
| 20260507081537 | 52 | 180 | 2.0 | 4.0 | 0.00 | 0.00 | 0.00 | 63 | 1020.5 |
| 20260507080030 | 53 | 194 | 3.0 | 6.0 | 0.00 | 0.00 | 0.00 | 60 | 1020.6 |
| 20260507073037 | 56 | 240 | 3.0 | 7.0 | 0.00 | 0.00 | 0.00 | 55 | 1020.4 |
| 20260507071537 | 56 | 284 | 1.0 | 3.0 | 0.00 | 0.00 | 0.00 | 54 | 1020.4 |
| 20260507070034 | 57 | 320 | 1.0 | 4.0 | 0.00 | 0.00 | 0.00 | 53 | 1020.5 |
| 20260507064533 | 56 | 107 | 2.0 | 7.0 | 0.00 | 0.00 | 0.00 | 55 | 1020.5 |
| 20260507063036 | 56 | 96 | 4.0 | 7.0 | 0.00 | 0.00 | 0.00 | 55 | 1020.6 |
| 20260507061535 | 57 | 110 | 2.0 | 9.0 | 0.00 | 0.00 | 0.00 | 54 | 1020.7 |
| 20260507054641 | 59 | 332 | 4.0 | 13.0 | 0.00 | 0.00 | 0.00 | 49 | 1020.6 |
| 20260507053032 | 60 | 345 | 8.0 | 17.0 | 0.00 | 0.00 | 0.00 | 47 | 1020.6 |
| 20260507044530 | 61 | 312 | 9.0 | 17.0 | 0.00 | 0.00 | 0.00 | 42 | 1020.8 |
| 20260507043036 | 61 | 310 | 10.0 | 19.0 | 0.00 | 0.00 | 0.00 | 42 | 1020.8 |
| 20260507041534 | 61 | 310 | 10.0 | 16.0 | 0.00 | 0.00 | 0.00 | 43 | 1020.6 |
| 20260507040045 | 61 | 312 | 11.0 | 21.0 | 0.00 | 0.00 | 0.00 | 45 | 1020.5 |
| 20260507034537 | 62 | 322 | 11.0 | 21.0 | 0.00 | 0.00 | 0.00 | 47 | 1020.5 |
| 20260507031530 | 63 | 315 | 13.0 | 21.0 | 0.00 | 0.00 | 0.00 | 47 | 1020.2 |
| 20260507030107 | 64 | 308 | 14.0 | 24.0 | 0.00 | 0.00 | 0.00 | 46 | 1020.1 |
| 20260507024535 | 64 | 319 | 10.0 | 23.0 | 0.00 | 0.00 | 0.00 | 46 | 1020.1 |
| 20260507023040 | 65 | 325 | 8.0 | 21.0 | 0.00 | 0.00 | 0.00 | 45 | 1020.1 |
| 20260507020031 | 66 | 354 | 6.0 | 13.0 | 0.00 | 0.00 | 0.00 | 43 | 1020.1 |